,,PA_Meas_PMT16A,,PR_Meas_QMR101_102,,RH_Meas_QMH101,,SR_Meas_QMS101,,TA_Meas_QMH101,,GenWind,,GenWind,
time,status,PA,status,PR,status,RH,status,SR,status,TA,status,DirAvg,status,SpdAvg,
2011-10-31, 00:00:04,VALID,915.243,VALID,0,VALID,96.6115,VALID,0,VALID,20.8714,VALID,114,VALID,1.76328,
2011-10-31, 00:01:04,VALID,915.177,VALID,0.2,VALID,96.4667,VALID,0,VALID,20.7349,VALID,129,VALID,1.16875,
2011-10-31, 00:02:04,VALID,915.212,VALID,0,VALID,96.238,VALID,0,VALID,20.7576,VALID,52,VALID,4.36016,
2011-10-31, 00:03:04,VALID,915.16,VALID,0.2,VALID,95.651,VALID,0,VALID,20.5578,VALID,64,VALID,2.76016,
2011-10-31, 00:04:04,VALID,915.212,VALID,0,VALID,95.8721,VALID,0,VALID,20.6569,VALID,158,VALID,1.16523,
2011-10-31, 00:05:04,VALID,915.165,VALID,0.2,VALID,95.3766,VALID,0,VALID,20.4556,VALID,186,VALID,2.11484,
2011-10-31, 00:06:04,VALID,915.192,VALID,0,VALID,94.5227,VALID,0,VALID,20.4213,VALID,106,VALID,2.88945,
2011-10-31, 00:07:04,VALID,915.196,VALID,0,VALID,93.0743,VALID,0,VALID,20.4064,VALID,105,VALID,2.49922,
2011-10-31, 00:08:04,VALID,915.182,VALID,0.2,VALID,92.19,VALID,0,VALID,20.4049,VALID,62,VALID,1.38789,
2011-10-31, 00:09:04,VALID,915.22,VALID,0,VALID,91.885,VALID,0,VALID,20.2637,VALID,51,VALID,2.16445,
2011-10-31, 00:10:04,VALID,915.21,VALID,0,VALID,91.4048,VALID,0,VALID,20.2909,VALID,82,VALID,1.36758,
2011-10-31, 00:11:04,VALID,915.177,VALID,0,VALID,90.6882,VALID,0,VALID,20.2083,VALID,90,VALID,2.16992,
2011-10-31, 00:12:04,VALID,915.189,VALID,0,VALID,90.9092,VALID,0,VALID,20.1724,VALID,139,VALID,2.01641,
2011-10-31, 00:13:04,VALID,915.173,VALID,0,VALID,91.4505,VALID,0,VALID,20.1123,VALID,135,VALID,0.900781,
2011-10-31, 00:14:04,VALID,915.156,VALID,0,VALID,91.6563,VALID,0,VALID,20.0959,VALID,97,VALID,1.6207,
2011-10-31, 00:15:04,VALID,915.145,VALID,0,VALID,92.2281,VALID,0,VALID,19.9938,VALID,76,VALID,1.44375,
2011-10-31, 00:16:04,VALID,915.141,VALID,0.2,VALID,91.0922,VALID,0,VALID,19.9368,VALID,121,VALID,2.47383,
2011-10-31, 00:17:04,VALID,915.128,VALID,0,VALID,91.3743,VALID,0,VALID,19.9398,VALID,72,VALID,1.60195,
2011-10-31, 00:18:04,VALID,915.115,VALID,0,VALID,91.4581,VALID,0,VALID,19.8573,VALID,140,VALID,1.84453,
2011-10-31, 00:19:04,VALID,915.109,VALID,0.2,VALID,91.5801,VALID,0,VALID,19.8183,VALID,101,VALID,1.8,
2011-10-31, 00:20:04,VALID,915.115,VALID,0,VALID,91.4276,VALID,0,VALID,19.7373,VALID,125,VALID,1.52422,
2011-10-31, 00:21:04,VALID,915.081,VALID,0.2,VALID,91.3209,VALID,0,VALID,19.7208,VALID,128,VALID,2.12031,
2011-10-31, 00:22:04,VALID,915.071,VALID,0.2,VALID,91.5877,VALID,0,VALID,19.6038,VALID,143,VALID,1.76914,
2011-10-31, 00:23:04,VALID,915.065,VALID,0,VALID,91.8393,VALID,0,VALID,19.5033,VALID,161,VALID,1.52461,
2011-10-31, 00:24:04,VALID,915.07,VALID,0.2,VALID,91.9536,VALID,0,VALID,19.4658,VALID,138,VALID,2.24766,
2011-10-31, 00:25:04,VALID,915.078,VALID,0,VALID,92.9828,VALID,0,VALID,19.4898,VALID,129,VALID,1.32852,
2011-10-31, 00:26:04,VALID,915.071,VALID,0,VALID,93.0285,VALID,0,VALID,19.4327,VALID,130,VALID,3.43516,
2011-10-31, 00:27:04,VALID,915.078,VALID,0.2,VALID,93.3335,VALID,0,VALID,19.3099,VALID,128,VALID,1.64531,
2011-10-31, 00:28:04,VALID,915.087,VALID,0.2,VALID,93.5469,VALID,0,VALID,19.3128,VALID,124,VALID,2.82148,
2011-10-31, 00:29:04,VALID,915.084,VALID,0.2,VALID,93.8595,VALID,0,VALID,19.1914,VALID,115,VALID,1.97656,
2011-10-31, 00:30:04,VALID,915.083,VALID,0.2,VALID,94.2559,VALID,0,VALID,19.2139,VALID,127,VALID,1.7418,
2011-10-31, 00:31:04,VALID,915.051,VALID,0.2,VALID,94.5304,VALID,0,VALID,19.1568,VALID,116,VALID,2.11133,
2011-10-31, 00:32:04,VALID,915.064,VALID,0.2,VALID,94.7514,VALID,0,VALID,19.1373,VALID,135,VALID,1.87383,
2011-10-31, 00:33:04,VALID,915.05,VALID,0.2,VALID,94.9878,VALID,0,VALID,19.0774,VALID,121,VALID,1.92656,
2011-10-31, 00:34:04,VALID,915.037,VALID,0,VALID,95.247,VALID,0,VALID,19.1178,VALID,123,VALID,2.4207,
2011-10-31, 00:35:04,VALID,915.004,VALID,0.2,VALID,95.3537,VALID,0,VALID,19.0969,VALID,140,VALID,1.71172,
2011-10-31, 00:36:04,VALID,914.999,VALID,0,VALID,95.3384,VALID,0,VALID,19.0969,VALID,128,VALID,2.27383,
2011-10-31, 00:37:04,VALID,914.956,VALID,0,VALID,95.4071,VALID,0,VALID,19.1178,VALID,132,VALID,1.54727,
2011-10-31, 00:38:04,VALID,914.929,VALID,0.2,VALID,95.4604,VALID,0,VALID,19.0759,VALID,142,VALID,2.00547,
2011-10-31, 00:39:04,VALID,914.918,VALID,0,VALID,95.5367,VALID,0,VALID,19.0969,VALID,117,VALID,1.9793,
2011-10-31, 00:40:04,VALID,914.884,VALID,0.2,VALID,95.5824,VALID,0,VALID,19.1178,VALID,125,VALID,1.45,
2011-10-31, 00:41:04,VALID,914.869,VALID,0,VALID,95.651,VALID,0,VALID,19.0355,VALID,109,VALID,1.47344,
2011-10-31, 00:42:05,VALID,914.821,VALID,0,VALID,95.6815,VALID,0,VALID,19.0774,VALID,104,VALID,1.82695,
2011-10-31, 00:43:05,VALID,914.823,VALID,0.2,VALID,95.7501,VALID,0,VALID,19.0788,VALID,127,VALID,1.40117,
2011-10-31, 00:44:05,VALID,914.769,VALID,0,VALID,95.8187,VALID,0,VALID,19.0564,VALID,119,VALID,1.23008,
2011-10-31, 00:45:05,VALID,914.758,VALID,0.2,VALID,95.8645,VALID,0,VALID,19.0579,VALID,123,VALID,1.96602,
2011-10-31, 00:46:05,VALID,914.765,VALID,0.2,VALID,95.9559,VALID,0,VALID,19.0384,VALID,126,VALID,1.24219,
2011-10-31, 00:47:05,VALID,914.745,VALID,0,VALID,96.0169,VALID,0,VALID,19.1417,VALID,128,VALID,1.05508,
2011-10-31, 00:48:05,VALID,914.754,VALID,0.2,VALID,96.0932,VALID,0,VALID,19.0579,VALID,124,VALID,1.44023,
2011-10-31, 00:49:05,VALID,914.704,VALID,0,VALID,96.1694,VALID,0,VALID,19.0788,VALID,124,VALID,0.930859,
2011-10-31, 00:50:05,VALID,914.665,VALID,0,VALID,96.1999,VALID,0,VALID,19.0369,VALID,124,VALID,0.855078,
2011-10-31, 00:51:05,VALID,914.652,VALID,0.2,VALID,96.2837,VALID,0,VALID,19.0998,VALID,124,VALID,0.764063,
2011-10-31, 00:52:05,VALID,914.649,VALID,0,VALID,96.3447,VALID,0,VALID,19.0788,VALID,124,VALID,0.708203,
2011-10-31, 00:53:05,VALID,914.61,VALID,0,VALID,96.4591,VALID,0,VALID,19.0774,VALID,124,VALID,0.904688,
2011-10-31, 00:54:05,VALID,914.604,VALID,0,VALID,96.5048,VALID,0,VALID,19.1402,VALID,124,VALID,0.863281,
2011-10-31, 00:55:05,VALID,914.578,VALID,0,VALID,96.4591,VALID,0,VALID,19.0983,VALID,140,VALID,1.00977,
2011-10-31, 00:56:05,VALID,914.589,VALID,0.2,VALID,96.5201,VALID,0,VALID,19.0983,VALID,140,VALID,0.579297,
2011-10-31, 00:57:05,VALID,914.542,VALID,0,VALID,96.5887,VALID,0,VALID,19.1193,VALID,140,VALID,0.873438,
2011-10-31, 00:58:05,VALID,914.531,VALID,0,VALID,96.6039,VALID,0,VALID,19.0579,VALID,140,VALID,0.918359,
2011-10-31, 00:59:05,VALID,914.515,VALID,0,VALID,96.6497,VALID,0,VALID,19.0983,VALID,140,VALID,0.8375,
2011-10-31, 01:00:05,VALID,914.505,VALID,0,VALID,96.6802,VALID,0,VALID,19.0579,VALID,157,VALID,1.17383,
2011-10-31, 01:01:05,VALID,914.474,VALID,0,VALID,96.6725,VALID,0,VALID,19.0384,VALID,177,VALID,2.02031,
2011-10-31, 01:02:05,VALID,914.47,VALID,0.2,VALID,96.6954,VALID,0,VALID,19.0384,VALID,173,VALID,1.26133,
2011-10-31, 01:03:05,VALID,914.461,VALID,0,VALID,96.7335,VALID,0,VALID,19.0593,VALID,173,VALID,0.939453,
2011-10-31, 01:04:05,VALID,914.457,VALID,0,VALID,96.7793,VALID,0,VALID,19.0788,VALID,173,VALID,1.07266,
2011-10-31, 01:05:05,VALID,914.463,VALID,0,VALID,96.7945,VALID,0,VALID,19.0579,VALID,173,VALID,0.891797,
2011-10-31, 01:06:05,VALID,914.405,VALID,0,VALID,96.8555,VALID,0,VALID,19.0774,VALID,173,VALID,0.720312,
2011-10-31, 01:07:05,VALID,914.386,VALID,0,VALID,96.8555,VALID,0,VALID,19.0983,VALID,173,VALID,0.971094,
2011-10-31, 01:08:05,VALID,914.377,VALID,0,VALID,96.8784,VALID,0,VALID,19.0983,VALID,173,VALID,0.738672,
2011-10-31, 01:09:05,VALID,914.375,VALID,0,VALID,96.886,VALID,0,VALID,19.0983,VALID,174,VALID,1.59414,
2011-10-31, 01:10:05,VALID,914.339,VALID,0.2,VALID,96.886,VALID,0.107441,VALID,19.0998,VALID,172,VALID,1.63555,
2011-10-31, 01:11:05,VALID,914.318,VALID,0,VALID,96.8936,VALID,0,VALID,19.0579,VALID,178,VALID,1.26523,
2011-10-31, 01:12:05,VALID,914.334,VALID,0,VALID,96.9012,VALID,0,VALID,19.0593,VALID,178,VALID,0.721484,
2011-10-31, 01:13:05,VALID,914.337,VALID,0,VALID,96.9165,VALID,0,VALID,19.0384,VALID,178,VALID,1.08359,
2011-10-31, 01:14:05,VALID,914.285,VALID,0,VALID,96.9241,VALID,0,VALID,19.0803,VALID,178,VALID,0.573047,
2011-10-31, 01:15:05,VALID,914.271,VALID,0,VALID,96.9394,VALID,0,VALID,19.0384,VALID,178,VALID,0.442187,
2011-10-31, 01:16:05,VALID,914.263,VALID,0,VALID,96.9622,VALID,0,VALID,19.1207,VALID,178,VALID,0.341016,
2011-10-31, 01:17:05,VALID,914.283,VALID,0,VALID,96.9851,VALID,0,VALID,19.1193,VALID,178,VALID,0.462891,
2011-10-31, 01:18:05,VALID,914.269,VALID,0,VALID,97.008,VALID,0,VALID,19.0774,VALID,178,VALID,0.538281,
2011-10-31, 01:19:05,VALID,914.277,VALID,0,VALID,97.008,VALID,0,VALID,19.1193,VALID,178,VALID,0.319531,
2011-10-31, 01:20:05,VALID,914.259,VALID,0,VALID,97.008,VALID,0,VALID,19.0998,VALID,178,VALID,0.653906,
2011-10-31, 01:21:05,VALID,914.259,VALID,0,VALID,97.0156,VALID,0,VALID,19.1012,VALID,178,VALID,0.421094,
2011-10-31, 01:22:05,VALID,914.244,VALID,0,VALID,97.0232,VALID,0,VALID,19.1207,VALID,178,VALID,1.0793,
2011-10-31, 01:23:05,VALID,914.236,VALID,0,VALID,97.0385,VALID,0,VALID,19.0803,VALID,178,VALID,0.800781,
2011-10-31, 01:24:05,VALID,914.184,VALID,0,VALID,97.0156,VALID,0,VALID,19.0384,VALID,178,VALID,0.702344,
2011-10-31, 01:25:05,VALID,914.202,VALID,0.2,VALID,97.0613,VALID,0,VALID,19.0983,VALID,125,VALID,0.600781,
2011-10-31, 01:26:05,VALID,914.176,VALID,0,VALID,97.0613,VALID,0,VALID,19.1178,VALID,141,VALID,0.723047,
2011-10-31, 01:27:05,VALID,914.168,VALID,0,VALID,97.0766,VALID,0,VALID,19.1763,VALID,147,VALID,0.479688,
2011-10-31, 01:28:05,VALID,914.137,VALID,0,VALID,97.0766,VALID,0,VALID,19.1149,VALID,182,VALID,0.15625,
2011-10-31, 01:29:05,VALID,914.116,VALID,0,VALID,97.0994,VALID,0,VALID,19.1344,VALID,207,VALID,0.804688,
2011-10-31, 01:30:05,VALID,914.116,VALID,0,VALID,97.1147,VALID,0,VALID,19.1973,VALID,144,VALID,0.633594,
2011-10-31, 01:31:05,VALID,914.121,VALID,0.2,VALID,97.1071,VALID,0,VALID,19.2363,VALID,144,VALID,0.3,
2011-10-31, 01:32:05,VALID,914.097,VALID,0,VALID,97.1528,VALID,0.107441,VALID,19.1958,VALID,151,VALID,0.649219,
2011-10-31, 01:33:05,VALID,914.091,VALID,0,VALID,97.1299,VALID,0.107441,VALID,19.1929,VALID,152,VALID,0.314453,
2011-10-31, 01:34:05,VALID,914.085,VALID,0,VALID,97.1452,VALID,0.107441,VALID,19.1734,VALID,151,VALID,0.46875,
2011-10-31, 01:35:05,VALID,914.087,VALID,0,VALID,97.1528,VALID,0,VALID,19.1749,VALID,151,VALID,0.316406,
2011-10-31, 01:36:05,VALID,914.049,VALID,0,VALID,97.1528,VALID,0,VALID,19.1734,VALID,148,VALID,0.733594,
2011-10-31, 01:37:05,VALID,914.076,VALID,0,VALID,97.1376,VALID,0,VALID,19.1958,VALID,141,VALID,0.525,
2011-10-31, 01:38:05,VALID,914.028,VALID,0.2,VALID,97.1681,VALID,0.107441,VALID,19.1344,VALID,123,VALID,0.982422,
2011-10-31, 01:39:05,VALID,914.036,VALID,0,VALID,97.1376,VALID,0,VALID,19.1373,VALID,123,VALID,0.767578,
2011-10-31, 01:40:05,VALID,914.016,VALID,0,VALID,97.1376,VALID,0,VALID,19.1388,VALID,138,VALID,0.704687,
2011-10-31, 01:41:05,VALID,913.999,VALID,0,VALID,97.1681,VALID,0.107441,VALID,19.0998,VALID,137,VALID,0.608203,
2011-10-31, 01:42:05,VALID,913.974,VALID,0,VALID,97.1909,VALID,0.107441,VALID,19.0969,VALID,103,VALID,0.283984,
2011-10-31, 01:43:05,VALID,913.95,VALID,0,VALID,97.1757,VALID,0,VALID,19.1778,VALID,104,VALID,0.340625,
2011-10-31, 01:44:05,VALID,913.921,VALID,0,VALID,97.2062,VALID,0.107441,VALID,19.1344,VALID,104,VALID,0.139062,
2011-10-31, 01:45:05,VALID,913.902,VALID,0,VALID,97.2062,VALID,0,VALID,19.1135,VALID,126,VALID,0.627734,
2011-10-31, 01:46:05,VALID,913.906,VALID,0,VALID,97.1909,VALID,0.107441,VALID,19.1763,VALID,126,VALID,0.480469,
2011-10-31, 01:47:05,VALID,913.878,VALID,0.2,VALID,97.2062,VALID,0,VALID,19.1734,VALID,126,VALID,0.844531,
2011-10-31, 01:48:05,VALID,913.841,VALID,0,VALID,97.2214,VALID,0,VALID,19.1749,VALID,146,VALID,0.710938,
2011-10-31, 01:49:05,VALID,913.857,VALID,0,VALID,97.2214,VALID,0,VALID,19.1958,VALID,164,VALID,1.22031,
2011-10-31, 01:50:05,VALID,913.85,VALID,0,VALID,97.229,VALID,0.107441,VALID,19.2153,VALID,164,VALID,0.536719,
2011-10-31, 01:51:05,VALID,913.845,VALID,0,VALID,97.2214,VALID,0.107441,VALID,19.1944,VALID,163,VALID,0.839453,
2011-10-31, 01:52:05,VALID,913.846,VALID,0,VALID,97.2367,VALID,0,VALID,19.1973,VALID,155,VALID,0.717578,
2011-10-31, 01:53:05,VALID,913.865,VALID,0,VALID,97.2214,VALID,0,VALID,19.1958,VALID,129,VALID,0.449609,
2011-10-31, 01:54:05,VALID,913.828,VALID,0,VALID,97.2595,VALID,0.107441,VALID,19.1734,VALID,129,VALID,0.357422,
2011-10-31, 01:55:05,VALID,913.852,VALID,0,VALID,97.2748,VALID,0.107441,VALID,19.2572,VALID,129,VALID,0.800781,
2011-10-31, 01:56:05,VALID,913.863,VALID,0,VALID,97.2595,VALID,0,VALID,19.133,VALID,130,VALID,0.778516,
2011-10-31, 01:57:05,VALID,913.837,VALID,0,VALID,97.2367,VALID,0.107441,VALID,19.1958,VALID,130,VALID,1.0668,
2011-10-31, 01:58:05,VALID,913.859,VALID,0.2,VALID,97.2672,VALID,0,VALID,19.1958,VALID,130,VALID,0.791406,
2011-10-31, 01:59:05,VALID,913.84,VALID,0,VALID,97.229,VALID,0,VALID,19.1958,VALID,130,VALID,0.483594,
2011-10-31, 02:00:05,VALID,913.836,VALID,0,VALID,97.2519,VALID,0.107441,VALID,19.1554,VALID,130,VALID,0.751562,
2011-10-31, 02:01:05,VALID,913.79,VALID,0,VALID,97.29,VALID,0,VALID,19.1958,VALID,130,VALID,0.689844,
2011-10-31, 02:02:05,VALID,913.81,VALID,0,VALID,97.2443,VALID,0.107441,VALID,19.1554,VALID,130,VALID,0.744922,
2011-10-31, 02:03:05,VALID,913.792,VALID,0,VALID,97.29,VALID,0,VALID,19.1958,VALID,130,VALID,0.529688,
2011-10-31, 02:04:05,VALID,913.787,VALID,0,VALID,97.29,VALID,0,VALID,19.2168,VALID,130,VALID,0.363281,
2011-10-31, 02:05:05,VALID,913.788,VALID,0,VALID,97.2748,VALID,0,VALID,19.2377,VALID,143,VALID,0.754297,
2011-10-31, 02:06:05,VALID,913.819,VALID,0,VALID,97.2595,VALID,0.107441,VALID,19.1525,VALID,160,VALID,1.45547,
2011-10-31, 02:07:05,VALID,913.816,VALID,0,VALID,97.2672,VALID,0,VALID,19.1944,VALID,164,VALID,0.615234,
2011-10-31, 02:08:05,VALID,913.788,VALID,0,VALID,97.2824,VALID,0,VALID,19.2377,VALID,164,VALID,0.824609,
2011-10-31, 02:09:05,VALID,913.808,VALID,0,VALID,97.2824,VALID,0,VALID,19.2153,VALID,164,VALID,0.373047,
2011-10-31, 02:10:05,VALID,913.834,VALID,0,VALID,97.2748,VALID,0,VALID,19.1539,VALID,164,VALID,0.433203,
2011-10-31, 02:11:05,VALID,913.816,VALID,0,VALID,97.3053,VALID,0,VALID,19.2153,VALID,164,VALID,0.475781,
2011-10-31, 02:12:05,VALID,913.808,VALID,0.2,VALID,97.29,VALID,0.107441,VALID,19.2348,VALID,164,VALID,0.360547,
2011-10-31, 02:13:05,VALID,913.808,VALID,0,VALID,97.2977,VALID,0.107441,VALID,19.2139,VALID,164,VALID,0.201172,
2011-10-31, 02:14:05,VALID,913.804,VALID,0,VALID,97.29,VALID,0.107441,VALID,19.2738,VALID,164,VALID,0.527734,
2011-10-31, 02:15:05,VALID,913.804,VALID,0,VALID,97.3053,VALID,0,VALID,19.2738,VALID,164,VALID,0.605469,
2011-10-31, 02:16:05,VALID,913.816,VALID,0,VALID,97.3053,VALID,0,VALID,19.2543,VALID,164,VALID,0.503906,
2011-10-31, 02:17:05,VALID,913.815,VALID,0,VALID,97.3205,VALID,0,VALID,19.2948,VALID,164,VALID,0.589844,
2011-10-31, 02:18:05,VALID,913.832,VALID,0,VALID,97.3205,VALID,0.107441,VALID,19.2528,VALID,164,VALID,0.201172,
2011-10-31, 02:19:05,VALID,913.829,VALID,0,VALID,97.2824,VALID,0,VALID,19.2918,VALID,164,VALID,0.609766,
2011-10-31, 02:20:05,VALID,913.864,VALID,0,VALID,97.2977,VALID,0,VALID,19.2514,VALID,164,VALID,0.238281,
2011-10-31, 02:21:05,VALID,913.848,VALID,0,VALID,97.3053,VALID,0,VALID,19.2723,VALID,164,VALID,0.25625,
2011-10-31, 02:22:05,VALID,913.88,VALID,0,VALID,97.2977,VALID,0.107441,VALID,19.2514,VALID,164,VALID,0.386328,
2011-10-31, 02:23:05,VALID,913.857,VALID,0,VALID,97.2977,VALID,0,VALID,19.2528,VALID,164,VALID,0.376172,
2011-10-31, 02:24:05,VALID,913.851,VALID,0,VALID,97.3053,VALID,0,VALID,19.2933,VALID,164,VALID,0,
2011-10-31, 02:25:05,VALID,913.834,VALID,0,VALID,97.3129,VALID,0.107441,VALID,19.3128,VALID,164,VALID,0.247266,
2011-10-31, 02:26:05,VALID,913.786,VALID,0,VALID,97.29,VALID,0.107441,VALID,19.2723,VALID,164,VALID,0.258984,
2011-10-31, 02:27:05,VALID,913.771,VALID,0,VALID,97.3205,VALID,0,VALID,19.3157,VALID,164,VALID,0.276563,
2011-10-31, 02:28:05,VALID,913.748,VALID,0,VALID,97.29,VALID,0,VALID,19.2738,VALID,164,VALID,0.183594,
2011-10-31, 02:29:05,VALID,913.737,VALID,0,VALID,97.3053,VALID,0,VALID,19.2753,VALID,164,VALID,0.294922,
2011-10-31, 02:30:05,VALID,913.721,VALID,0,VALID,97.3281,VALID,0,VALID,19.3533,VALID,164,VALID,0.38125,
2011-10-31, 02:31:05,VALID,913.712,VALID,0,VALID,97.3129,VALID,0,VALID,19.2933,VALID,164,VALID,0.457812,
2011-10-31, 02:32:05,VALID,913.701,VALID,0,VALID,97.3358,VALID,0,VALID,19.3157,VALID,164,VALID,0.475,
2011-10-31, 02:33:05,VALID,913.67,VALID,0,VALID,97.3205,VALID,0,VALID,19.3352,VALID,164,VALID,0.275781,
2011-10-31, 02:34:05,VALID,913.661,VALID,0,VALID,97.2977,VALID,0,VALID,19.2528,VALID,164,VALID,0.405469,
2011-10-31, 02:35:05,VALID,913.64,VALID,0,VALID,97.3281,VALID,0,VALID,19.2543,VALID,164,VALID,0.642969,
2011-10-31, 02:36:05,VALID,913.62,VALID,0,VALID,97.3205,VALID,0,VALID,19.2139,VALID,164,VALID,0.786719,
2011-10-31, 02:37:05,VALID,913.603,VALID,0,VALID,97.3358,VALID,0,VALID,19.2528,VALID,164,VALID,0.660937,
2011-10-31, 02:38:05,VALID,913.63,VALID,0,VALID,97.3281,VALID,0,VALID,19.3352,VALID,164,VALID,0.596094,
2011-10-31, 02:39:05,VALID,913.606,VALID,0,VALID,97.3434,VALID,0,VALID,19.3742,VALID,164,VALID,0.810547,
2011-10-31, 02:40:05,VALID,913.614,VALID,0,VALID,97.351,VALID,0,VALID,19.3128,VALID,164,VALID,0.755469,
2011-10-31, 02:41:05,VALID,913.606,VALID,0,VALID,97.3281,VALID,0,VALID,19.3338,VALID,164,VALID,0.955469,
2011-10-31, 02:42:05,VALID,913.63,VALID,0,VALID,97.3434,VALID,0,VALID,19.2918,VALID,164,VALID,1.37773,
2011-10-31, 02:43:05,VALID,913.568,VALID,0,VALID,97.3205,VALID,0,VALID,19.3143,VALID,164,VALID,0.989844,
2011-10-31, 02:44:05,VALID,913.562,VALID,0,VALID,97.3281,VALID,0,VALID,19.2319,VALID,164,VALID,0.598437,
2011-10-31, 02:45:05,VALID,913.495,VALID,0,VALID,97.3053,VALID,0,VALID,19.2723,VALID,162,VALID,1.41562,
2011-10-31, 02:46:05,VALID,913.51,VALID,0,VALID,97.3205,VALID,0,VALID,19.3143,VALID,149,VALID,0.645703,
2011-10-31, 02:47:05,VALID,913.485,VALID,0,VALID,97.3205,VALID,0,VALID,19.2334,VALID,149,VALID,0.410547,
2011-10-31, 02:48:05,VALID,913.428,VALID,0,VALID,97.3129,VALID,0,VALID,19.2933,VALID,149,VALID,0.509375,
2011-10-31, 02:49:05,VALID,913.412,VALID,0,VALID,97.3129,VALID,0,VALID,19.3547,VALID,149,VALID,0.253906,
2011-10-31, 02:50:05,VALID,913.407,VALID,0,VALID,97.3205,VALID,0,VALID,19.2124,VALID,149,VALID,0.716797,
2011-10-31, 02:51:05,VALID,913.393,VALID,0,VALID,97.3205,VALID,0,VALID,19.2753,VALID,149,VALID,0.467969,
2011-10-31, 02:52:05,VALID,913.378,VALID,0,VALID,97.3281,VALID,0,VALID,19.2124,VALID,149,VALID,0.445313,
2011-10-31, 02:53:05,VALID,913.398,VALID,0,VALID,97.3205,VALID,0,VALID,19.3172,VALID,149,VALID,0.467969,
2011-10-31, 02:54:05,VALID,913.405,VALID,0,VALID,97.3205,VALID,0,VALID,19.1914,VALID,149,VALID,1.14336,
2011-10-31, 02:55:05,VALID,913.407,VALID,0,VALID,97.3205,VALID,0,VALID,19.3382,VALID,149,VALID,0.550391,
2011-10-31, 02:56:05,VALID,913.401,VALID,0,VALID,97.3434,VALID,0,VALID,19.1914,VALID,139,VALID,0.861328,
2011-10-31, 02:57:05,VALID,913.34,VALID,0,VALID,97.3281,VALID,0,VALID,19.2543,VALID,175,VALID,0.894922,
2011-10-31, 02:58:05,VALID,913.361,VALID,0,VALID,97.3205,VALID,0,VALID,19.2139,VALID,170,VALID,1.16562,
2011-10-31, 02:59:05,VALID,913.316,VALID,0,VALID,97.3434,VALID,0,VALID,19.2543,VALID,162,VALID,0.520703,
2011-10-31, 03:00:05,VALID,913.352,VALID,0,VALID,97.3358,VALID,0,VALID,19.3157,VALID,162,VALID,0.715234,
2011-10-31, 03:01:05,VALID,913.347,VALID,0,VALID,97.3434,VALID,0,VALID,19.2558,VALID,179,VALID,1.25859,
2011-10-31, 03:02:05,VALID,913.34,VALID,0,VALID,97.351,VALID,0,VALID,19.2543,VALID,167,VALID,0.566797,
2011-10-31, 03:03:05,VALID,913.31,VALID,0,VALID,97.3358,VALID,0,VALID,19.1734,VALID,167,VALID,0.371875,
2011-10-31, 03:04:05,VALID,913.318,VALID,0,VALID,97.3205,VALID,0,VALID,19.2139,VALID,167,VALID,0.725391,
2011-10-31, 03:05:05,VALID,913.324,VALID,0,VALID,97.351,VALID,0,VALID,19.2139,VALID,163,VALID,0.993359,
2011-10-31, 03:06:05,VALID,913.334,VALID,0,VALID,97.3663,VALID,0,VALID,19.2334,VALID,157,VALID,0.399219,
2011-10-31, 03:07:05,VALID,913.343,VALID,0,VALID,97.3663,VALID,0.107441,VALID,19.2543,VALID,191,VALID,0.786328,
2011-10-31, 03:08:05,VALID,913.36,VALID,0,VALID,97.3586,VALID,0,VALID,19.2348,VALID,181,VALID,0.317187,
2011-10-31, 03:09:05,VALID,913.358,VALID,0,VALID,97.3739,VALID,0,VALID,19.2962,VALID,181,VALID,0.281641,
2011-10-31, 03:10:05,VALID,913.364,VALID,0,VALID,97.3663,VALID,0,VALID,19.2319,VALID,174,VALID,0.977734,
2011-10-31, 03:11:05,VALID,913.358,VALID,0,VALID,97.3663,VALID,0,VALID,19.2753,VALID,169,VALID,0.973828,
2011-10-31, 03:12:05,VALID,913.367,VALID,0,VALID,97.3739,VALID,0,VALID,19.2948,VALID,158,VALID,0.948047,
2011-10-31, 03:13:05,VALID,913.34,VALID,0,VALID,97.3815,VALID,0,VALID,19.2319,VALID,170,VALID,0.759375,
2011-10-31, 03:14:05,VALID,913.34,VALID,0,VALID,97.3815,VALID,0,VALID,19.3128,VALID,140,VALID,0.526953,
2011-10-31, 03:15:05,VALID,913.34,VALID,0,VALID,97.3739,VALID,0,VALID,19.3367,VALID,183,VALID,0.842578,
2011-10-31, 03:16:05,VALID,913.355,VALID,0,VALID,97.3586,VALID,0,VALID,19.229,VALID,156,VALID,1.15313,
2011-10-31, 03:17:05,VALID,913.334,VALID,0,VALID,97.3815,VALID,0,VALID,19.2723,VALID,157,VALID,1.32969,
2011-10-31, 03:18:05,VALID,913.33,VALID,0,VALID,97.3739,VALID,0,VALID,19.229,VALID,171,VALID,0.756641,
2011-10-31, 03:19:05,VALID,913.341,VALID,0,VALID,97.3739,VALID,0,VALID,19.2933,VALID,168,VALID,1.15469,
2011-10-31, 03:20:05,VALID,913.361,VALID,0,VALID,97.3586,VALID,0,VALID,19.2918,VALID,171,VALID,0.799609,
2011-10-31, 03:21:05,VALID,913.33,VALID,0,VALID,97.3815,VALID,0,VALID,19.3338,VALID,165,VALID,1.57305,
2011-10-31, 03:22:05,VALID,913.37,VALID,0,VALID,97.3739,VALID,0,VALID,19.2948,VALID,147,VALID,1.46016,
2011-10-31, 03:23:05,VALID,913.373,VALID,0,VALID,97.3739,VALID,0.107441,VALID,19.3577,VALID,177,VALID,1.00586,
2011-10-31, 03:24:05,VALID,913.398,VALID,0,VALID,97.3815,VALID,0,VALID,19.2738,VALID,172,VALID,0.905859,
2011-10-31, 03:25:05,VALID,913.375,VALID,0,VALID,97.3891,VALID,0,VALID,19.2543,VALID,166,VALID,1.2125,
2011-10-31, 03:26:04,VALID,913.404,VALID,0,VALID,97.3891,VALID,0,VALID,19.2543,VALID,158,VALID,0.996875,
2011-10-31, 03:27:04,VALID,913.442,VALID,0,VALID,97.3663,VALID,0,VALID,19.2319,VALID,158,VALID,0.831641,
2011-10-31, 03:28:04,VALID,913.425,VALID,0,VALID,97.3663,VALID,0,VALID,19.2933,VALID,167,VALID,0.970312,
2011-10-31, 03:29:04,VALID,913.423,VALID,0,VALID,97.4044,VALID,0,VALID,19.2514,VALID,182,VALID,0.591016,
2011-10-31, 03:30:04,VALID,913.421,VALID,0,VALID,97.3968,VALID,0,VALID,19.3157,VALID,180,VALID,0.843359,
2011-10-31, 03:31:04,VALID,913.414,VALID,0,VALID,97.4044,VALID,0,VALID,19.2709,VALID,179,VALID,0.810547,
2011-10-31, 03:32:04,VALID,913.421,VALID,0,VALID,97.4349,VALID,0,VALID,19.2904,VALID,142,VALID,0.639063,
2011-10-31, 03:33:04,VALID,913.425,VALID,0,VALID,97.4196,VALID,0,VALID,19.3518,VALID,164,VALID,1.07773,
2011-10-31, 03:34:04,VALID,913.441,VALID,0,VALID,97.4273,VALID,0,VALID,19.3323,VALID,169,VALID,1.38203,
2011-10-31, 03:35:04,VALID,913.434,VALID,0,VALID,97.4196,VALID,0,VALID,19.3503,VALID,164,VALID,0.949609,
2011-10-31, 03:36:04,VALID,913.479,VALID,0,VALID,97.4349,VALID,0,VALID,19.3908,VALID,163,VALID,0.390234,
2011-10-31, 03:37:04,VALID,913.434,VALID,0,VALID,97.4349,VALID,0,VALID,19.3893,VALID,183,VALID,1.21953,
2011-10-31, 03:38:04,VALID,913.417,VALID,0,VALID,97.4425,VALID,0,VALID,19.3684,VALID,174,VALID,0.436328,
2011-10-31, 03:39:04,VALID,913.469,VALID,0,VALID,97.4425,VALID,0,VALID,19.4703,VALID,164,VALID,1.29102,
2011-10-31, 03:40:04,VALID,913.462,VALID,0,VALID,97.4425,VALID,0,VALID,19.4493,VALID,149,VALID,0.660547,
2011-10-31, 03:41:04,VALID,913.456,VALID,0,VALID,97.4425,VALID,0,VALID,19.5303,VALID,122,VALID,0.659375,
2011-10-31, 03:42:04,VALID,913.469,VALID,0,VALID,97.4501,VALID,0,VALID,19.5483,VALID,96,VALID,0.863672,
2011-10-31, 03:43:04,VALID,913.485,VALID,0,VALID,97.4425,VALID,0,VALID,19.5273,VALID,145,VALID,1.35039,